Location: Drocourt
(49.0571°N, 1.7669°E)
Time: 14:47:16
(UTC+00:00)

SR - Pass Details

Date: 15 April 2024
Orbit: 579 x 859 km, 66.7° (Epoch: 28 May)

Event Time Altitude Azimuth Distance (km) Brightness Sun altitude
Rises 05:51:47 0° 281° (W) 3,271 ? 7.3°
Reaches altitude 10° 05:55:29 10° 306° (NW) 2,281 ? 7.9°
Maximum altitude 05:58:12 14° 338° (NNW) 1,961 ? 8.4°
Drops below altitude 10° 06:00:50 10° 10° (N) 2,184 ? 8.8°
Sets 06:04:15 0° 35° (NE) 3,036 ? 9.4°
